#timestamp,LO_Frequency,Hit,StdDev 
1553508015.6,286046999.2,N
1553508035.5,286046997.3,N
1553508055.3,286046997.9,N
1553508075.1,286046997.3,N
1553508095.9,286046999.5,N
1553508115.7,286046997.1,N
1553508135.5,286046997.7,N
1553508155.4,286046997.2,N
1553508175.2,286046997.5,N
1553508195.1,286046996.9,N
1553508196.0,286046996.9,N
1553508215.8,286046997.1,N
1553508235.6,286046997.6,N
1553508255.5,286046996.1,N
1553508275.3,286046994.6,Y
1553508295.1,286046995.3,P
1553508315.9,286046997.6,N
1553508335.7,286046997.8,N
1553508355.6,286046995.5,Y
1553508375.4,286046998.5,P
1553508395.3,286046996.6,P
1553508415.1,286046997.2,P
1553508416.0,286046997.2,Y
1553508435.8,286047000.0,P
1553508455.7,286047000.0,N
1553508475.5,286047001.2,N
1553508495.3,286046998.5,N
1553508515.2,286047000.5,N
1553508535.0,286047001.2,N
1553508535.9,286047001.2,N
1553508555.8,286047000.6,N
1553508575.6,286047000.0,N
1553508595.4,286047001.5,N
1553508615.3,286047002.2,N
1553508635.1,286047002.7,N
1553508655.8,286047004.2,Y
1553508675.7,286047001.8,P
1553508695.5,286047000.5,N
1553508715.4,286046998.5,N
1553508735.2,286046998.6,N
1553508755.0,286046996.5,N
1553508755.9,286046996.5,N
1553508775.8,286046999.5,N
1553508795.6,286046998.5,N
1553508815.4,286046998.9,N
1553508835.3,286046998.4,N
1553508855.1,286046998.8,N
1553508875.9,286047001.2,N
1553508895.7,286047001.1,N
1553508915.5,286047001.2,N
1553508935.4,286046998.6,N
1553508955.2,286046998.3,N
1553508975.0,286046998.9,N
1553508975.9,286046998.9,N
1553508995.8,286046996.8,N
1553509015.6,286046996.7,N
1553509035.5,286046997.7,N
1553509055.3,286046999.2,N
1553509075.1,286046998.8,N
1553509095.9,286046999.4,N
1553509115.7,286046997.4,N
1553509135.6,286046995.0,Y
1553509155.4,286046997.4,P
1553509175.2,286046997.5,P
1553509195.1,286046998.0,N
1553509196.0,286046998.0,Y
1553509215.8,286046999.0,P
1553509235.6,286046999.3,N
1553509255.5,286046998.6,N
1553509275.3,286047000.9,N
1553509295.2,286047001.0,N
1553509315.9,286047000.5,N
1553509335.7,286046998.3,N
1553509355.6,286046999.6,N
1553509375.4,286046996.7,Y
1553509395.2,286046999.4,P
1553509415.1,286046999.0,P
1553509416.0,286046999.0,P
1553509435.8,286046999.6,N
1553509455.7,286046999.0,Y
1553509475.5,286046996.6,P
1553509495.3,286046998.3,N
1553509515.2,286046999.4,N
1553509535.0,286046998.9,N
1553509535.9,286046998.9,N
1553509555.7,286046999.3,N
1553509575.6,286047001.1,N
1553509595.4,286046998.9,N
1553509615.3,286046998.2,N
1553509635.1,286046998.2,N
1553509636.0,286046998.2,N
1553509655.8,286046999.9,N
1553509675.7,286047000.5,N
1553509695.5,286047001.0,N
1553509715.3,286047001.0,N
1553509735.2,286047000.5,N
1553509755.0,286046998.6,N
1553509755.9,286046998.6,N
1553509775.8,286046999.2,N
1553509795.6,286046997.1,N
1553509815.4,286046996.6,N
1553509835.3,286046996.7,N
1553509855.1,286046996.6,N
1553509875.8,286046998.8,N
1553509895.7,286047000.8,N
1553509915.5,286047000.5,N
1553509935.4,286046998.4,N
1553509955.2,286046999.6,N
1553509975.0,286046997.8,N
1553509975.9,286046997.8,N
1553509995.8,286046997.2,N
1553510015.6,286046998.0,N
1553510035.4,286046996.6,N
1553510055.3,286047001.1,N
1553510075.1,286046998.2,N
1553510095.9,286046999.2,N
1553510115.7,286046997.0,N
1553510135.5,286046996.9,N
1553510155.4,286046999.5,N
1553510175.2,286046996.5,N
1553510195.0,286046997.2,N
1553510195.9,286046997.2,N
1553510215.8,286046996.7,N
1553510235.6,286046994.9,Y
1553510255.5,286046999.3,P
1553510275.3,286046997.2,P
1553510295.1,286046997.4,P
1553510315.9,286046997.3,Y
1553510335.8,286046998.5,P
1553510355.6,286047001.2,P
1553510375.4,286046998.7,N
1553510395.3,286046999.9,N
1553510415.1,286047002.7,N
1553510435.8,286047000.9,N
1553510455.7,286047000.4,N
1553510475.5,286047000.8,N
1553510495.3,286047000.5,N
1553510515.2,286047000.7,N
1553510535.0,286047000.0,N
1553510535.9,286047000.0,N
1553510555.8,286047002.8,N
1553510575.6,286046999.9,N
1553510595.4,286047002.6,N
1553510615.3,286047001.7,N
1553510635.1,286047003.2,N
1553510655.8,286047003.9,N
1553510675.7,286047004.1,N
1553510695.5,286047003.6,N
1553510715.4,286047001.8,N
1553510735.2,286047001.4,N
1553510755.0,286047001.4,N
1553510755.9,286047001.4,N
1553510775.8,286047005.7,Y
1553510795.6,286047004.3,P
1553510815.4,286047002.1,N
1553510835.3,286047002.5,N
1553510855.1,286047002.6,N
1553510875.9,286047001.4,N
1553510895.7,286047003.9,Y
1553510915.5,286047000.1,P
1553510935.4,286047000.0,N
1553510955.2,286047002.3,N
1553510975.0,286047001.9,N
1553510976.0,286047001.9,N
1553510995.8,286047001.7,N
1553511015.6,286047001.8,N
1553511035.5,286047002.8,Y
1553511055.3,286047000.6,P
1553511075.1,286047000.9,N
1553511095.9,286046998.5,P
1553511115.7,286047000.4,N
1553511135.6,286047000.5,N
1553511155.4,286047001.1,N
1553511175.2,286047000.9,N
1553511195.1,286047000.7,N
1553511196.0,286047000.7,N
1553511215.8,286046998.3,N
1553511235.6,286046998.5,N
1553511255.5,286046998.3,N
1553511275.3,286046999.4,N
1553511325.2,286046999.1,E
1553511335.1,286046999.0,N
1553511355.8,286047000.8,P
1553511375.7,286047001.0,N
1553511395.3,286047001.2,N
1553511415.2,286047000.0,N
1553511435.9,286046999.8,N
1553511455.7,286047000.0,N
1553511475.6,286047000.8,N
1553511495.5,286047000.2,N
1553511515.3,286046999.8,N
1553511535.1,286046999.7,N
1553511555.9,286047001.2,N
1553511575.7,286047001.0,N
1553511595.5,286046998.1,N
